Flag for French Polynesia Weather past 2 weeks in Taiohae, Marquesas Islands, French Polynesia

Now
85 °F

Partly sunny.


Feels Like: 94 °F
Forecast: 78 / 85 °F
Wind: 20 mph from East

Location: Atuona

Current Time: Mar 3, 2015 at 1:31:26 PM

Latest Report: Mar 3, 2015 at 12:30 PM


Visibility: 16 mi

Pressure: 29.81 "Hg

Humidity: 72%

Dew point: 75 °F

Location of TaiohaeLocation

Historic Weather in Taiohae — Graph

°F

Taiohae temperature yesterday

Maximum temperature yesterday: 89 °F (at 10:30 AM)
Minimum temperature yesterday: 74 °F (at 3:30 AM)
Average temperature yesterday: 81 °F

Past Weeks' High & Low Weather Summary

 TemperatureHumidityPressure
High90 °F (Feb 23, 11:30 AM)96% (Feb 21, 6:30 PM)29.95 "Hg (Feb 21, 6:30 PM)
Low72 °F (Feb 22, 5:30 AM)59% (Feb 21, 11:30 AM)29.72 "Hg (Feb 28, 3:30 PM)
Average79 °F80%29.84 "Hg
* Reported Feb 16 12:30 PM — Mar 3 11:30 AM, Taiohae, Weather by CustomWeather, © 2015

Note: Actual official high and low records may vary slightly from our data, if they occured in-between our weather recording intervals... More about our weather records

Advertising

Taiohae weather history for previous 24 hours

 ConditionsComfort  
Time TempWeatherWind HumidityBarometerVisibility
11:30 AM
Tue, Mar 3
86 °FPartly sunny.17 mph71%29.84 "Hg16 mi
10:30 AM86 °FScattered clouds.20 mph69%29.87 "Hg16 mi
9:30 AM87 °FScattered clouds.16 mph68%29.88 "Hg16 mi
8:30 AM86 °FScattered clouds.13 mph69%29.90 "Hg16 mi
7:30 AM83 °FScattered clouds.2 mph75%29.89 "Hg12 mi
6:30 AM78 °FScattered clouds.5 mph85%29.87 "Hg22 mi
5:30 AM78 °FScattered clouds.2 mph84%29.86 "Hg12 mi
4:30 AM78 °FWarm.2 mph84%29.84 "HgN/A
3:30 AM77 °FWarm.No wind84%29.83 "HgN/A
2:30 AM77 °FWarm.1 mph84%29.83 "HgN/A
1:30 AM78 °FWarm.2 mph79%29.84 "HgN/A
12:30 AM79 °FWarm.5 mph77%29.86 "HgN/A
11:30 PM
Mon, Mar 2
80 °FWarm.3 mph74%29.88 "HgN/A
10:30 PM80 °FWarm.5 mph74%29.90 "HgN/A
9:30 PM80 °FWarm.2 mph78%29.90 "HgN/A
8:30 PM79 °FWarm.3 mph79%29.88 "HgN/A
7:30 PM79 °FWarm.5 mph78%29.86 "HgN/A
6:30 PM81 °FWarm.6 mph72%29.84 "HgN/A
5:30 PM81 °FWarm.14 mph71%29.81 "HgN/A
4:30 PM82 °FScattered clouds.17 mph70%29.78 "Hg25 mi
3:30 PM83 °FScattered clouds.17 mph67%29.78 "Hg25 mi
2:30 PM84 °FWarm.20 mph67%29.78 "HgN/A
1:30 PM84 °FScattered clouds.20 mph69%29.80 "Hg25 mi
Weather by CustomWeather, © 2015

See weather overviewHow to use our weather pages